Weather History for Fort Wayne, IN

Change the Weather History Date:

Saturday, July 20, 2013

  Actual Average Record
Temperature  
Mean Temperature 79 °F 74 °F  
Max Temperature 87 °F 84 °F 102 °F (1934)
Min Temperature 71 °F 63 °F 47 °F (1941)
Degree Days  
Heating Degree Days 0 0  
Month to date heating degree days 0 0  
Since 1 June heating degree days 19 29  
Since 1 July heating degree days 0 0  
Cooling Degree Days 14 9  
Month to date cooling degree days 205 180  
Year to date cooling degree days 498 419  
Since 1 June cooling degree days 393 362  
Growing Degree Days 30 (Base 50)    
Moisture  
Dew Point 71 °F    
Average Humidity 81    
Maximum Humidity 94    
Minimum Humidity 41    
Precipitation  
Precipitation 0.73 in 0.14 in 1.46 in (1946)
Month to date precipitation 3.20 2.77  
Year to date precipitation 26.78 21.73  
Snow  
Snow 0.00 in 0.00 in 0.00 in (2002)
Month to date snowfall 0.0 0.0  
Since 1 June snowfall 0.0 0.0  
Since 1 July snowfall 0.0 0.0  
Snow Depth 0.00 in    
Sea Level Pressure  
Sea Level Pressure 29.85 in    
Wind  
Wind Speed 7 mph (WSW)    
Max Wind Speed 22 mph    
Max Gust Speed 32 mph    
Visibility 7 miles    
Events Rain , Thunderstorm    
T = Trace of Precipitation, MM = Missing Value Source: NWS Daily Summary

Daily Weather History Graph

Daily Weather History Graph

Search for Another Location

Airport:

Trip Planner

Search our weather history database for the weather conditions in past years. The results will help you decide how hot, cold, wet, or windy it might be!

Date:

Astronomy

Jul. 20, 2013 Rise Set
Actual Time 6:25 AM EDT 9:07 PM EDT
Civil Twilight 5:53 AM EDT 9:39 PM EDT
Nautical Twilight 5:13 AM EDT 10:19 PM EDT
Astronomical Twilight 4:27 AM EDT 11:05 PM EDT
Moon 7:10 PM EDT (7/20) 4:05 AM EDT (7/20)
Length of Visible Light 15h 45m
Length of Day
14h 41m
Waxing Gibbous, 93% of the Moon is Illuminated
Jul 20
Waxing Gibbous
Jul 22
Full
Jul 29
Last Quarter
Aug 6
New
Aug 14
First Quarter

Hourly Weather History & Observations

Time (EDT) Temp. Heat Index Dew Point Humidity Pressure Visibility Wind Dir Wind Speed Gust Speed Precip Events Conditions
12:54 AM 80.1 °F 83.6 °F 71.1 °F 74% 29.83 in 10.0 mi SW 11.5 mph - N/A   Partly Cloudy
1:54 AM 80.1 °F 83.6 °F 71.1 °F 74% 29.82 in 10.0 mi SW 13.8 mph 20.7 mph N/A   Partly Cloudy
2:54 AM 80.1 °F 83.6 °F 71.1 °F 74% 29.81 in 10.0 mi SW 15.0 mph 20.7 mph N/A   Scattered Clouds
3:54 AM 79.0 °F - 71.1 °F 77% 29.78 in 10.0 mi SW 12.7 mph 20.7 mph N/A   Mostly Cloudy
4:21 AM 78.8 °F - 71.6 °F 78% 29.80 in 10.0 mi SW 11.5 mph 18.4 mph N/A Thunderstorm Thunderstorm
4:54 AM 79.0 °F - 72.0 °F 79% 29.78 in 3.0 mi WSW 10.4 mph 19.6 mph 0.00 in Rain , Thunderstorm Light Thunderstorms and Rain
5:36 AM 73.4 °F - 69.8 °F 88% 29.82 in 3.0 mi West 12.7 mph 32.2 mph 0.10 in Rain , Thunderstorm Heavy Thunderstorms and Rain
5:42 AM 73.4 °F - 71.6 °F 94% 29.83 in 2.5 mi West 11.5 mph 25.3 mph 0.13 in Rain , Thunderstorm Thunderstorms and Rain
5:46 AM 73.4 °F - 71.6 °F 94% 29.82 in 0.8 mi West 12.7 mph - 0.27 in Rain , Thunderstorm Heavy Thunderstorms and Rain
5:54 AM 75.0 °F - 73.0 °F 94% 29.80 in 6.0 mi SW 10.4 mph - 0.36 in Rain , Thunderstorm Thunderstorms and Rain
6:07 AM 75.2 °F - 73.4 °F 94% 29.82 in 5.0 mi WSW 9.2 mph - 0.00 in   Overcast
6:39 AM 75.2 °F - 73.4 °F 94% 29.84 in 1.8 mi WSW 8.1 mph - 0.05 in Rain Heavy Rain
6:44 AM 75.2 °F - 73.4 °F 94% 29.83 in 2.5 mi SW 5.8 mph - 0.16 in Rain Light Rain
6:54 AM 75.0 °F - 73.0 °F 94% 29.81 in 5.0 mi WSW 4.6 mph - 0.16 in Rain Light Rain
7:40 AM 75.2 °F - 73.4 °F 94% 29.84 in 6.0 mi SW 3.5 mph - 0.02 in   Overcast
7:54 AM 75.0 °F - 73.0 °F 94% 29.83 in 4.0 mi WSW 6.9 mph - 0.02 in Rain Rain
8:02 AM 75.2 °F - 73.4 °F 94% 29.85 in 1.5 mi West 10.4 mph - 0.05 in Rain , Thunderstorm Heavy Thunderstorms and Rain
8:11 AM 73.4 °F - 71.6 °F 94% 29.84 in 0.8 mi WSW 9.2 mph - 0.17 in Rain , Thunderstorm Thunderstorms and Rain
8:17 AM 73.4 °F - 71.6 °F 94% 29.84 in 1.5 mi WSW 11.5 mph - 0.18 in Rain , Thunderstorm Thunderstorms and Rain
8:20 AM 73.4 °F - 71.6 °F 94% 29.84 in 6.0 mi WSW 10.4 mph - 0.18 in Rain , Thunderstorm Light Thunderstorms and Rain
8:54 AM 73.0 °F - 70.0 °F 90% 29.84 in 10.0 mi WSW 5.8 mph - 0.19 in Thunderstorm Thunderstorm
9:08 AM 73.4 °F - 71.6 °F 94% 29.87 in 8.0 mi WSW 3.5 mph - N/A Thunderstorm Thunderstorm
9:18 AM 73.4 °F - 71.6 °F 94% 29.88 in 7.0 mi SW 6.9 mph - N/A   Mostly Cloudy
9:54 AM 75.9 °F - 71.1 °F 85% 29.86 in 10.0 mi West 4.6 mph - N/A   Mostly Cloudy
10:54 AM 75.0 °F - 71.1 °F 87% 29.88 in 10.0 mi SW 6.9 mph - N/A   Overcast
11:54 AM 78.1 °F - 73.0 °F 84% 29.87 in 9.0 mi West 10.4 mph - N/A   Mostly Cloudy
12:54 PM 82.0 °F 87.4 °F 73.0 °F 74% 29.87 in 10.0 mi West 4.6 mph - N/A   Mostly Cloudy
1:54 PM 84.9 °F 89.4 °F 70.0 °F 61% 29.86 in 10.0 mi Calm Calm - N/A   Mostly Cloudy
2:54 PM 82.9 °F 87.5 °F 71.1 °F 67% 29.85 in 10.0 mi WSW 4.6 mph - N/A   Mostly Cloudy
3:54 PM 86.0 °F 89.4 °F 68.0 °F 55% 29.85 in 10.0 mi WNW 10.4 mph - N/A   Mostly Cloudy
4:54 PM 84.9 °F 86.6 °F 64.9 °F 51% 29.84 in 10.0 mi WNW 6.9 mph - N/A   Mostly Cloudy
5:54 PM 84.0 °F 86.3 °F 66.0 °F 55% 29.85 in 10.0 mi WNW 4.6 mph - N/A   Mostly Cloudy
6:54 PM 82.9 °F 87.0 °F 70.0 °F 65% 29.85 in 10.0 mi North 3.5 mph - N/A   Mostly Cloudy
7:54 PM 81.0 °F 84.1 °F 69.1 °F 67% 29.86 in 10.0 mi NNW 3.5 mph - N/A   Mostly Cloudy
8:54 PM 79.0 °F - 71.1 °F 77% 29.89 in 10.0 mi WSW 3.5 mph - N/A   Mostly Cloudy
9:54 PM 75.9 °F - 73.0 °F 91% 29.91 in 10.0 mi SW 5.8 mph - N/A   Mostly Cloudy
10:54 PM 73.9 °F - 72.0 °F 93% 29.92 in 10.0 mi West 3.5 mph - N/A   Mostly Cloudy
11:54 PM 73.0 °F - 71.1 °F 93% 29.92 in 7.0 mi SW 3.5 mph - N/A   Mostly Cloudy